TimeEST,TemperatureF,Dew PointF,Humidity,Sea Level PressureIn,VisibilityMPH,Wind Direction,Wind SpeedMPH,Gust SpeedMPH,PrecipitationIn,Events,Conditions,WindDirDegrees,DateUTC
12:02 AM,34.0,24.6,69,30.38,10.0,SSE,9.2,-,N/A,,Scattered Clouds,160,2012-11-15 05:02:00
12:36 AM,34.5,24.8,68,30.38,10.0,SSE,9.2,-,N/A,,Scattered Clouds,160,2012-11-15 05:36:00
12:55 AM,34.7,24.8,67,30.38,10.0,South,5.8,-,N/A,,Overcast,170,2012-11-15 05:55:00
1:14 AM,34.9,24.8,67,30.38,10.0,SSE,5.8,-,N/A,,Overcast,150,2012-11-15 06:14:00
1:34 AM,35.1,24.8,66,30.38,10.0,SSE,4.6,-,N/A,,Overcast,150,2012-11-15 06:34:00
1:54 AM,35.1,25.0,67,30.38,10.0,SSE,4.6,-,N/A,,Overcast,160,2012-11-15 06:54:00
2:15 AM,35.2,25.2,67,30.38,10.0,SSE,5.8,-,N/A,,Overcast,160,2012-11-15 07:15:00
2:35 AM,35.6,25.2,66,30.38,10.0,SSE,5.8,-,N/A,,Overcast,160,2012-11-15 07:35:00
2:55 AM,35.6,25.3,66,30.38,10.0,SSE,5.8,-,N/A,,Overcast,160,2012-11-15 07:55:00
3:14 AM,35.6,25.5,67,30.38,10.0,SSE,6.9,-,N/A,,Overcast,160,2012-11-15 08:14:00
3:35 AM,35.6,25.7,67,30.37,10.0,SSE,6.9,-,N/A,,Overcast,150,2012-11-15 08:35:00
3:54 AM,35.6,25.3,66,30.37,10.0,SSE,5.8,-,N/A,,Overcast,150,2012-11-15 08:54:00
4:15 AM,35.6,25.5,67,30.36,10.0,SSE,8.1,-,N/A,,Overcast,160,2012-11-15 09:15:00
4:35 AM,35.4,25.7,68,30.36,10.0,SSE,8.1,-,N/A,,Overcast,160,2012-11-15 09:35:00
4:55 AM,34.9,25.5,69,30.36,10.0,SSE,6.9,-,N/A,,Mostly Cloudy,160,2012-11-15 09:55:00
5:14 AM,34.7,25.5,69,30.36,10.0,SSE,8.1,-,N/A,,Scattered Clouds,160,2012-11-15 10:14:00
5:35 AM,34.3,25.7,71,30.36,10.0,SSE,6.9,-,N/A,,Scattered Clouds,160,2012-11-15 10:35:00
5:55 AM,34.2,25.7,71,30.35,10.0,SSE,6.9,-,N/A,,Scattered Clouds,160,2012-11-15 10:55:00
6:15 AM,34.2,26.2,73,30.35,10.0,SSE,8.1,-,N/A,,Mostly Cloudy,160,2012-11-15 11:15:00
6:34 AM,33.8,26.4,74,30.35,10.0,SSE,8.1,-,N/A,,Scattered Clouds,160,2012-11-15 11:34:00
7:14 AM,34.0,26.8,75,30.34,10.0,SSE,6.9,-,N/A,,Scattered Clouds,160,2012-11-15 12:14:00
7:35 AM,33.8,26.6,75,30.34,10.0,SSE,9.2,-,N/A,,Scattered Clouds,160,2012-11-15 12:35:00
7:55 AM,34.3,27.1,75,30.34,10.0,SSE,8.1,-,N/A,,Mostly Cloudy,160,2012-11-15 12:55:00
8:15 AM,34.3,27.5,76,30.34,10.0,South,8.1,-,N/A,,Mostly Cloudy,170,2012-11-15 13:15:00
8:35 AM,35.1,28.2,76,30.33,10.0,SSE,8.1,-,N/A,,Overcast,160,2012-11-15 13:35:00
8:55 AM,35.6,28.6,76,30.33,10.0,SSE,8.1,-,N/A,,Overcast,160,2012-11-15 13:55:00
9:15 AM,36.0,29.3,77,30.33,7.0,South,6.9,-,N/A,,Mostly Cloudy,170,2012-11-15 14:15:00
9:35 AM,36.7,29.8,76,30.33,7.0,SSE,9.2,-,N/A,,Scattered Clouds,160,2012-11-15 14:35:00
9:55 AM,37.4,30.2,75,30.32,7.0,SSE,8.1,-,N/A,,Clear,160,2012-11-15 14:55:00
10:15 AM,38.3,30.9,75,30.32,10.0,South,10.4,16.1,N/A,,Clear,170,2012-11-15 15:15:00
10:35 AM,40.3,32.0,72,30.33,7.0,South,13.8,19.6,N/A,,Clear,180,2012-11-15 15:35:00
10:55 AM,42.3,32.0,67,30.33,10.0,South,10.4,-,N/A,,Clear,190,2012-11-15 15:55:00
11:14 AM,43.0,32.0,65,30.32,10.0,South,11.5,17.3,N/A,,Clear,180,2012-11-15 16:14:00
11:35 AM,44.2,32.0,62,30.32,10.0,SSW,12.7,17.3,N/A,,Clear,200,2012-11-15 16:35:00
11:55 AM,44.2,32.0,62,30.31,7.0,South,15.0,23.0,N/A,,Clear,190,2012-11-15 16:55:00
12:15 PM,45.5,32.0,59,30.30,10.0,SSW,15.0,21.9,N/A,,Clear,210,2012-11-15 17:15:00
12:35 PM,46.4,32.2,58,30.30,10.0,South,9.2,16.1,N/A,,Scattered Clouds,190,2012-11-15 17:35:00
12:54 PM,47.1,32.2,56,30.29,10.0,South,10.4,16.1,N/A,,Scattered Clouds,190,2012-11-15 17:54:00
1:15 PM,47.8,32.4,55,30.29,10.0,SSW,13.8,18.4,N/A,,Clear,200,2012-11-15 18:15:00
1:35 PM,47.3,32.0,55,30.28,10.0,SSW,15.0,21.9,N/A,,Clear,210,2012-11-15 18:35:00
1:55 PM,47.5,32.0,55,30.28,10.0,SSW,13.8,18.4,N/A,,Mostly Cloudy,200,2012-11-15 18:55:00
2:15 PM,46.9,32.0,56,30.28,10.0,SSW,10.4,17.3,N/A,,Overcast,200,2012-11-15 19:15:00
2:35 PM,46.9,32.0,56,30.27,10.0,SSW,15.0,20.7,N/A,,Overcast,200,2012-11-15 19:35:00
2:55 PM,48.0,32.0,54,30.27,10.0,SSW,8.1,20.7,N/A,,Overcast,200,2012-11-15 19:55:00
3:15 PM,47.3,32.0,55,30.27,10.0,SW,11.5,19.6,N/A,,Overcast,220,2012-11-15 20:15:00
3:35 PM,46.6,32.2,57,30.28,10.0,SSW,6.9,17.3,N/A,,Overcast,200,2012-11-15 20:35:00
3:55 PM,45.5,32.4,60,30.28,10.0,SSW,10.4,-,N/A,,Overcast,200,2012-11-15 20:55:00
4:15 PM,45.7,32.9,61,30.28,10.0,South,9.2,-,N/A,,Overcast,190,2012-11-15 21:15:00
4:35 PM,45.9,33.1,61,30.27,10.0,South,9.2,-,N/A,,Mostly Cloudy,190,2012-11-15 21:35:00
4:55 PM,45.5,32.7,61,30.27,10.0,South,8.1,-,N/A,,Mostly Cloudy,190,2012-11-15 21:55:00
5:15 PM,44.8,32.4,62,30.27,10.0,South,8.1,-,N/A,,Overcast,190,2012-11-15 22:15:00
5:35 PM,44.6,32.4,62,30.28,10.0,South,4.6,-,N/A,,Scattered Clouds,190,2012-11-15 22:35:00
5:55 PM,44.2,32.9,64,30.28,10.0,South,6.9,-,N/A,,Scattered Clouds,190,2012-11-15 22:55:00
6:15 PM,44.2,32.5,63,30.28,10.0,South,6.9,-,N/A,,Scattered Clouds,190,2012-11-15 23:15:00
6:34 PM,44.2,32.9,64,30.28,10.0,South,8.1,-,N/A,,Clear,190,2012-11-15 23:34:00
6:55 PM,43.7,32.5,65,30.29,10.0,South,8.1,-,N/A,,Clear,190,2012-11-15 23:55:00
7:15 PM,43.2,32.2,65,30.29,10.0,South,4.6,-,N/A,,Clear,190,2012-11-16 00:15:00
7:35 PM,42.8,32.2,66,30.30,10.0,South,5.8,-,N/A,,Clear,190,2012-11-16 00:35:00
7:55 PM,42.3,33.1,70,30.30,10.0,SSW,8.1,-,N/A,,Clear,200,2012-11-16 00:55:00
8:15 PM,42.3,33.4,71,30.30,10.0,SSW,8.1,-,N/A,,Clear,210,2012-11-16 01:15:00
8:34 PM,42.3,33.8,72,30.30,10.0,SSW,8.1,-,N/A,,Clear,210,2012-11-16 01:34:00
8:55 PM,41.9,34.0,73,30.31,10.0,SW,5.8,-,N/A,,Scattered Clouds,220,2012-11-16 01:55:00
9:14 PM,41.2,33.8,75,30.32,10.0,SSW,4.6,-,N/A,,Mostly Cloudy,210,2012-11-16 02:14:00
9:34 PM,40.1,33.8,78,30.32,10.0,SSW,3.5,-,N/A,,Scattered Clouds,210,2012-11-16 02:34:00
9:55 PM,40.3,34.0,78,30.33,10.0,Calm,Calm,-,N/A,,Scattered Clouds,0,2012-11-16 02:55:00
10:15 PM,39.6,33.6,79,30.34,10.0,SSW,3.5,-,N/A,,Clear,210,2012-11-16 03:15:00
10:35 PM,39.7,33.8,79,30.34,10.0,Calm,Calm,-,N/A,,Clear,0,2012-11-16 03:35:00
10:55 PM,38.8,33.1,80,30.34,10.0,Calm,Calm,-,N/A,,Clear,0,2012-11-16 03:55:00
11:14 PM,36.1,32.5,87,30.35,7.0,Calm,Calm,-,N/A,,Clear,0,2012-11-16 04:14:00
11:35 PM,34.5,32.2,91,30.35,7.0,Calm,Calm,-,N/A,,Mostly Cloudy,0,2012-11-16 04:35:00
11:54 PM,35.6,33.1,91,30.34,7.0,ESE,3.5,-,N/A,,Overcast,120,2012-11-16 04:54:00